Zurück zum Katalog

FENGYUN 1C DEB

AktivPO
NORAD 35105·DEBRIS·🇨🇳 China

Gestartet May 10, 1999 von Taiyuan Satellite Launch Center

Loading…

Nächste Überflüge (nächste 24 Stunden)

TLE

AlterndSource: Space-Track

Epoche: Sep 8, 2026, 05:31 UTC

1 35105U 99025DKH 26251.23014841  .00000669  00000-0  18873-3 0  9999
2 35105  98.9636 252.2043 0110314 330.8732  28.6334 14.45989122983877

Verfolge FENGYUN 1C DEB in Echtzeit mit AllMySat

Download on the App Store